Location: Seasalter
(51.3333°N, 1.0167°E)
Time: 13:55:43
(UTC+00:00)

NOSS 3-1 (C) - Pass Details

Date: 26 September 2023
Orbit: 670 x 1537 km, 63.4° (Epoch: 01 December)

Event Time Altitude Azimuth Distance (km) Brightness Sun altitude
Rises 04:46:17 0° 313° (NW) 3,878 6.3 -10.4°
Reaches altitude 10° 04:48:54 10° 306° (NW) 3,040 5.7 -10.0°
Maximum altitude 04:55:43 41° 240° (WSW) 1,819 4.5 -8.9°
Drops below altitude 10° 05:03:42 10° 175° (S) 3,562 6.4 -7.7°
Sets 05:07:02 0° 169° (S) 4,609 7.1 -7.2°
